Skip Page Navigation
NASA JPL Caltech
NASA Logo - Jet Propulsion Laboratory + View the NASA Portal
+ Center for Near-Earth Object Studies
JPL Home Earth Solar System Stars & Galaxies Technology
JPL Solar System Dynamics
BODIES ORBITS EPHEMERIDES TOOLS PHYSICAL DATA DISCOVERY FAQ SITE MAP
JPL Small-Body Database Browser
Search: [ help ]  
160353 (2003 UV162)
Classification: Main-belt Asteroid          SPK-ID: 2160353
Ephemeris | Orbit Diagram | Orbital Elements | Mission Design | Physical Parameters | Discovery Circumstances ]

[ show orbit diagram ]
Orbital Elements at Epoch 2459200.5 (2020-Dec-17.0) TDB
Reference: JPL 20 (heliocentric ecliptic J2000)
 Element Value Uncertainty (1-sigma)   Units 
e .1455759919031402 4.3105e-08  
a 2.757442441607137 1.7894e-08 au
q 2.356025023054361 1.2185e-07 au
i 6.391388425892576 5.6537e-06 deg
node 67.08368485305813 3.4754e-05 deg
peri 293.7050382975515 3.9042e-05 deg
M 294.4840447346358 1.9934e-05 deg
tp 2459504.870590966606
(2021-Oct-17.37059097)
9.3924e-05 TDB
period 1672.469130674579
4.58
1.628e-05
4.457e-08
d
yr
n .2152506096508918 2.0952e-09 deg/d
Q 3.158859860159913 2.0499e-08 au
  Orbit Determination Parameters
   # obs. used (total)      561  
   data-arc span      9310 days (25.49 yr)  
   first obs. used      1994-12-28  
   last obs. used      2020-06-24  
   planetary ephem.      DE441  
   SB-pert. ephem.      SB441-N16  
   condition code      0  
   norm. resid. RMS      .58103  
   source      ORB  
   producer      Otto Matic  
   solution date      2021-Apr-13 20:01:00  

Additional Information
 Earth MOID = 1.36072 au 
 Jupiter MOID = 2.32034 au 
 T_jup = 3.318 
[ show covariance matrix ]

Ephemeris | Orbit Diagram | Orbital Elements | Mission Design | Physical Parameters | Discovery Circumstances ]

Physical Parameter Table
Parameter Symbol Value Units Sigma Reference Notes
absolute magnitude H 15.31   n/a E2021B55  
diameter diameter 4.781 km 0.353 urn:nasa:pds:neowise_diameters_albedos::2.0[mainbelt] (http://adsabs.harvard.edu/abs/2011ApJ...741...68M)  
rotation period rot_per 11.707 h n/a LCDB (Rev. 2020-October); Warner et al., 2009 Result based on less than full coverage, so that the period may be wrong by 30 percent or so.
Published Reference List:
[Waszczak, A.; Chang, C.-K.; Ofeck, E.O.; Laher, F.; et al. (2015) Astron. J. 150, A75.]
geometric albedo albedo 0.059   0.017 urn:nasa:pds:neowise_diameters_albedos::2.0[mainbelt] (http://adsabs.harvard.edu/abs/2011ApJ...741...68M)  

160353 (2003 UV162)          Discovered 2003-Oct-21 by LINEAR at Socorro
Reference: 20070730/Numbers.arcLast Updated: 2007-08-06
Ephemeris | Orbit Diagram | Orbital Elements | Mission Design | Physical Parameters | Discovery Circumstances ]
ABOUT SSD CREDITS/AWARDS PRIVACY/COPYRIGHT GLOSSARY LINKS
FirstGov 2021-Apr-18 14:00 UT
(server date/time)  
NASA Home Page
Site Manager:   Ryan S. Park
Webmaster  Alan B. Chamberlin